Wind_Speed
7 8 7 6 6 6 8 8 9 11 14 13 13 15 19 22 22 22 32 28 31 36 30 32 26 28 32 36 30 34 37 39 34 38 32 29 31 26 24 28 32 27 34
6 7 8 8 8 7 8 7 6 6 9 11 11 11 16 19 18 21 33 24 30 29 36 32 34 36 37 39 32 33 36 38 39 37 36 25 25 29 29 25 21 24 24
8 8 8 8 8 8 8 6 5 3 4 8 9 8 11 13 16 17 19 20 25 33 36 37 35 41 43 43 37 34 35 44 42 39 24 18 9 26 27 29 29 31 31
9 9 9 8 9 10 8 6 5 4 3 3 7 8 9 12 12 14 14 18 20 24 28 25 35 39 41 42 35 40 43 42 44 41 41 33 22 30 18 29 34 38 43
12 13 12 11 10 10 11 11 9 8 6 6 7 7 8 8 11 12 13 14 15 17 22 21 24 30 36 41 42 48 46 41 47 45 45 35 23 35 30 31 34 33 38
16 15 14 13 14 13 12 14 13 12 10 9 10 10 9 8 8 10 11 13 13 13 16 17 19 23 24 27 31 40 40 36 41 43 43 45 36 37 34 36 40 35 35
20 19 19 18 17 17 15 18 17 17 16 14 13 13 12 11 10 10 10 11 11 11 11 13 13 18 21 24 26 28 34 25 21 28 21 30 34 34 35 35 43 38 36
23 23 22 22 21 19 20 20 20 20 19 18 17 15 14 14 13 12 12 11 10 11 8 12 12 13 15 20 24 28 26 28 34 21 17 16 16 19 30 30 38 36 36
23 23 23 23 22 21 21 23 22 23 22 21 20 19 17 15 15 14 14 14 12 11 10 11 12 11 11 12 13 17 21 21 22 29 24 23 19 19 9 18 30 34 30
20 21 22 22 23 22 22 22 22 24 23 22 21 21 20 18 17 16 16 14 14 11 10 9 10 10 10 11 10 10 11 11 12 17 18 20 20 15 18 14 20 23 20
18 19 20 19 20 20 21 21 22 24 24 22 21 20 20 19 18 18 18 17 15 14 13 12 11 11 10 9 9 9 11 10 8 7 10 12 16 16 15 18 21 21 25
17 17 18 17 18 18 19 19 21 22 22 20 19 20 20 19 20 21 20 18 18 17 16 14 13 13 12 11 10 10 10 9 8 7 6 6 8 10 14 19 24 25 23
16 16 16 18 17 17 17 17 17 17 16 16 15 17 19 19 21 20 20 19 19 19 19 18 17 16 15 12 11 10 10 9 8 8 6 5 5 5 6 8 12 17 21
12 14 15 15 16 16 15 15 14 14 13 12 11 12 15 17 18 16 17 18 19 20 20 22 22 19 15 14 13 11 11 8 6 5 3 4 4 3 3 6 8 10 14
12 12 11 11 11 11 11 10 9 9 9 9 8 10 12 12 11 12 14 15 15 18 20 21 21 24 23 14 12 13 12 11 9 8 6 5 5 3 3 3 4 6 8
13 11 10 8 9 8 8 8 8 8 9 8 8 9 7 6 7 8 8 9 12 13 13 14 16 20 26 18 14 12 10 10 10 9 8 8 7 5 2 1 3 6 6
11 11 10 9 6 6 6 6 6 6 6 7 7 7 7 6 6 6 5 4 7 9 9 10 11 11 16 19 13 11 9 8 8 7 7 7 6 5 5 6 3 1 3
10 9 9 10 9 7 6 5 5 4 5 5 5 5 5 6 6 6 5 3 5 5 6 6 6 5 5 9 8 7 6 7 6 5 4 3 3 3 3 2 2 5 7
13 11 10 9 9 9 7 5 4 2 3 2 3 4 4 4 5 5 4 3 4 4 5 4 3 3 2 2 2 2 2 2 2 2 2 2 3 4 4 3 4 4 5
12 11 10 8 9 9 6 6 6 5 3 2 1 1 1 2 2 2 3 3 3 3 4 3 4 4 3 2 3 2 1 2 2 2 1 2 2 2 2 4 3 4 6
12 11 11 11 7 10 9 7 7 6 5 4 3 2 1 0 1 2 2 2 2 2 3 3 4 4 3 2 2 2 2 2 4 5 5 4 4 5 5 4 4 3 6
14 11 11 11 9 10 11 9 7 8 6 6 5 4 3 2 2 1 1 1 1 2 2 2 3 3 3 3 2 2 2 3 5 5 5 4 4 6 4 6 3 8 9
16 13 12 12 11 11 12 12 6 10 10 9 8 7 5 5 4 3 1 1 1 1 1 2 1 1 2 2 2 2 2 3 4 4 4 4 6 9 10 7 8 11 14
18 15 14 13 13 12 15 14 11 13 14 12 11 11 10 9 7 6 5 3 2 0 0 2 3 3 2 2 2 3 3 3 4 5 5 5 5 5 6 8 12 14 13
19 17 16 16 14 12 13 14 15 16 17 16 14 14 13 12 11 10 8 7 6 3 3 5 2 1 2 4 3 4 6 6 5 5 4 7 7 8 9 9 9 11 13
21 20 18 18 17 16 14 13 15 17 18 19 18 16 16 14 15 13 12 11 9 8 7 8 10 5 7 3 3 3 4 2 2 5 6 7 8 9 9 8 9 12 13
Wind_Direction
51 63 79 96 108 109 129 141 159 177 191 189 190 201 216 211 229 211 206 209 210 210 217 221 217 203 197 192 195 196 201 199 201 209 197 187 198 207 209 181 208 187 199
86 74 71 85 92 88 88 97 110 140 169 187 195 198 199 214 205 214 227 215 207 228 217 218 212 206 210 208 211 208 199 209 200 198 192 186 200 208 209 211 193 192 203
51 67 75 73 84 95 95 89 92 103 156 173 172 190 195 196 190 194 209 205 217 212 217 214 212 210 211 218 217 209 206 204 200 196 192 175 187 185 200 204 203 203 206
54 56 63 71 82 88 99 115 133 161 180 178 188 189 202 193 186 193 189 194 217 217 214 221 218 228 213 210 208 205 201 200 203 205 204 202 202 180 186 188 186 188 180
56 52 53 61 71 91 101 107 113 130 143 174 182 176 185 191 184 190 193 198 200 202 211 209 214 217 208 213 210 200 205 208 209 206 203 204 205 196 186 184 189 188 180
64 66 65 69 73 81 95 100 106 114 131 144 146 157 159 179 174 172 183 184 196 197 201 201 202 207 213 219 219 213 204 206 208 202 203 208 203 196 197 194 188 187 184
66 65 64 67 71 74 83 91 96 103 107 119 131 139 140 159 167 155 149 160 174 187 189 188 189 200 200 212 221 232 226 216 202 211 216 202 201 202 201 201 196 191 189
67 67 66 67 70 71 75 85 89 92 96 103 111 117 125 133 141 144 142 143 144 152 170 186 197 191 199 206 210 215 221 232 236 245 237 245 232 197 206 205 210 197 194
62 64 67 69 70 71 73 78 83 87 90 93 101 107 110 112 120 124 125 126 127 131 138 152 166 170 185 183 199 206 207 223 230 243 248 252 262 239 248 224 206 209 192
58 60 63 66 70 71 74 79 81 84 87 90 93 96 99 101 106 112 112 112 112 117 123 135 134 152 164 177 181 184 202 210 212 219 235 245 247 244 243 251 236 221 204
50 52 55 60 64 68 72 75 80 80 82 85 87 92 94 96 97 98 97 98 105 105 109 113 121 124 134 146 160 160 165 181 197 213 233 239 250 257 248 246 241 241 232
43 44 46 51 57 60 63 65 70 74 74 77 84 88 94 96 96 93 93 93 92 94 94 99 104 105 108 118 128 137 146 160 166 182 202 206 212 226 238 241 242 237 240
36 38 40 43 46 49 51 55 59 64 70 74 79 87 89 91 88 91 94 96 97 95 93 91 90 92 93 97 102 108 115 119 135 144 162 198 215 214 212 211 225 230 235
26 25 33 39 41 44 42 46 48 50 52 55 66 75 78 78 78 82 88 92 96 99 97 94 91 86 85 88 90 91 90 92 97 103 122 135 143 163 221 228 227 222 224
16 13 18 27 38 37 42 46 52 57 58 55 53 62 65 71 79 84 84 87 95 102 105 107 98 87 69 76 90 86 87 91 90 90 87 81 77 99 148 185 203 223 227
14 2 2 12 21 25 30 36 40 46 55 61 65 69 74 83 87 88 92 94 98 103 112 117 106 97 76 66 90 92 95 90 85 78 68 59 55 51 34 154 194 206 203
353 351 353 354 7 9 16 25 27 34 43 53 53 61 70 77 86 92 90 109 114 112 117 120 124 119 101 67 78 93 94 98 98 93 80 73 69 58 32 12 340 254 227
346 343 343 344 349 5 9 7 14 19 28 39 37 43 53 56 66 74 82 88 99 118 120 123 128 129 89 69 50 83 83 90 93 97 102 111 97 61 34 15 351 343 330
329 326 331 337 337 340 350 359 3 14 39 23 10 14 29 35 51 58 70 71 78 87 93 103 111 112 99 86 37 90 119 98 97 103 92 80 87 84 25 283 269 275 283
323 320 318 328 330 317 331 336 340 342 6 11 34 334 25 32 46 59 54 50 59 60 80 77 79 78 72 80 41 328 336 274 250 247 214 218 177 96 96 335 310 279 276
324 318 314 317 316 305 310 316 319 320 320 323 327 336 328 313 116 75 57 43 42 48 58 53 61 63 68 60 45 354 351 288 276 272 268 263 268 278 291 308 276 320 338
324 315 304 306 303 295 296 297 300 290 293 290 291 292 289 302 320 3 45 36 26 39 47 42 41 40 39 45 47 20 350 314 311 293 290 292 349 334 286 268 290 255 257
327 321 307 298 290 285 283 280 281 270 277 278 279 277 275 281 291 290 301 326 340 34 42 52 60 46 31 19 7 2 351 350 349 354 349 304 278 274 294 291 290 275 268
326 322 311 299 292 281 275 275 263 261 267 270 267 266 269 271 277 283 283 279 275 320 101 123 111 96 53 1 23 16 9 7 22 34 44 46 33 5 340 308 290 286 283
326 321 316 308 301 290 273 267 261 255 258 260 257 257 257 258 264 270 273 267 269 248 207 176 149 340 340 322 353 5 4 358 347 309 296 300 300 308 305 304 309 316 304
322 318 314 308 303 294 286 275 263 258 255 254 253 254 255 253 255 260 262 262 256 252 245 264 290 301 303 299 13 321 311 267 223 270 297 308 310 315 317 314 307 295 293
Height
1410 1409 1409 1409 1409 1409 1408 1410 1411 1412 1415 1418 1421 1423 1426 1430 1433 1435 1438 1440 1444 1449 1453 1457 1461 1465 1470 1473 1476 1479 1483 1485 1491 1498 1500 1505 1510 1513 1518 1513 1523 1527 1532
1410 1410 1410 1410 1409 1409 1409 1410 1412 1413 1413 1416 1419 1422 1423 1427 1430 1432 1439 1438 1442 1445 1449 1453 1456 1460 1466 1471 1474 1477 1479 1485 1486 1492 1497 1503 1509 1509 1513 1518 1521 1524 1529
1412 1410 1409 1409 1408 1408 1409 1411 1413 1413 1414 1416 1417 1421 1422 1424 1426 1430 1433 1434 1439 1442 1446 1446 1451 1454 1459 1466 1471 1476 1480 1481 1485 1488 1493 1501 1503 1508 1513 1514 1517 1521 1525
1414 1412 1409 1409 1408 1408 1409 1411 1412 1413 1416 1417 1416 1419 1423 1425 1424 1426 1431 1432 1436 1440 1438 1443 1450 1453 1454 1462 1467 1474 1476 1480 1482 1486 1490 1494 1500 1503 1509 1512 1515 1517 1519
1416 1414 1413 1412 1411 1410 1410 1410 1411 1412 1413 1415 1415 1417 1420 1424 1423 1424 1429 1430 1433 1434 1441 1440 1447 1450 1451 1455 1462 1463 1470 1476 1478 1481 1487 1491 1495 1499 1501 1506 1512 1516 1517
1419 1418 1418 1415 1412 1412 1413 1410 1409 1409 1411 1414 1412 1415 1417 1423 1424 1423 1425 1428 1431 1434 1437 1439 1445 1448 1450 1456 1462 1462 1466 1473 1476 1474 1479 1486 1490 1493 1497 1502 1508 1513 1517
1422 1421 1420 1418 1418 1417 1418 1411 1412 1410 1412 1410 1411 1413 1416 1420 1426 1424 1424 1425 1430 1432 1438 1437 1442 1447 1448 1450 1457 1462 1467 1469 1470 1474 1479 1481 1481 1488 1494 1499 1503 1508 1512
1428 1426 1426 1424 1423 1423 1419 1415 1415 1412 1412 1410 1412 1415 1417 1421 1424 1426 1424 1426 1429 1430 1433 1436 1443 1445 1444 1448 1453 1458 1461 1467 1468 1475 1479 1483 1482 1482 1491 1493 1501 1505 1508
1435 1433 1432 1429 1427 1426 1425 1420 1421 1415 1415 1417 1418 1418 1421 1423 1425 1427 1426 1426 1430 1435 1437 1439 1441 1440 1447 1449 1453 1456 1455 1461 1464 1471 1477 1479 1481 1489 1486 1493 1497 1499 1500
1442 1440 1437 1434 1432 1431 1429 1426 1426 1424 1421 1423 1425 1424 1425 1428 1429 1427 1429 1428 1429 1433 1435 1439 1439 1442 1446 1448 1450 1452 1452 1459 1463 1467 1474 1478 1485 1483 1487 1493 1498 1498 1500
1448 1444 1440 1439 1436 1434 1434 1433 1431 1426 1426 1428 1429 1429 1430 1432 1432 1431 1431 1430 1432 1436 1438 1439 1441 1442 1444 1447 1450 1451 1454 1459 1463 1466 1469 1470 1474 1479 1482 1490 1495 1496 1502
1451 1448 1445 1442 1439 1438 1437 1436 1431 1430 1433 1435 1437 1436 1437 1437 1436 1434 1435 1436 1437 1438 1441 1442 1443 1444 1446 1449 1452 1453 1455 1458 1461 1464 1469 1472 1474 1475 1480 1486 1489 1494 1497
1454 1452 1450 1446 1444 1442 1441 1438 1437 1438 1440 1441 1443 1443 1441 1441 1439 1440 1441 1440 1442 1443 1444 1446 1446 1447 1449 1451 1453 1456 1457 1458 1459 1463 1468 1472 1474 1475 1481 1484 1488 1489 1491
1460 1457 1454 1452 1450 1449 1447 1445 1446 1446 1446 1446 1447 1446 1444 1440 1440 1445 1444 1444 1446 1447 1448 1449 1449 1449 1451 1452 1454 1455 1454 1458 1462 1466 1471 1473 1471 1473 1479 1482 1485 1487 1488
1463 1462 1460 1458 1455 1454 1452 1452 1452 1451 1451 1449 1449 1446 1442 1443 1448 1449 1449 1450 1451 1451 1451 1451 1450 1451 1452 1453 1455 1456 1459 1462 1467 1470 1473 1474 1473 1475 1478 1479 1482 1486 1488
1466 1465 1463 1460 1457 1456 1455 1453 1453 1452 1450 1452 1452 1449 1450 1453 1450 1450 1453 1453 1454 1454 1454 1454 1453 1453 1456 1457 1456 1458 1461 1464 1467 1469 1471 1473 1475 1478 1480 1482 1485 1488 1490
1467 1466 1464 1462 1459 1458 1456 1454 1453 1454 1455 1452 1452 1452 1453 1454 1453 1453 1454 1458 1455 1455 1457 1456 1455 1456 1456 1459 1458 1461 1463 1464 1468 1470 1473 1475 1478 1479 1482 1483 1486 1488 1489
1466 1465 1463 1461 1459 1457 1456 1455 1454 1453 1452 1452 1453 1455 1454 1453 1452 1452 1454 1459 1454 1457 1455 1455 1455 1455 1455 1459 1459 1462 1464 1466 1470 1472 1474 1477 1480 1482 1485 1486 1487 1488 1488
1465 1464 1462 1460 1459 1457 1455 1455 1455 1455 1454 1455 1455 1455 1453 1455 1453 1453 1455 1458 1455 1456 1451 1455 1454 1453 1455 1459 1462 1462 1465 1468 1471 1472 1474 1478 1482 1485 1487 1487 1488 1489 1488
1464 1463 1460 1458 1458 1458 1456 1455 1454 1454 1454 1455 1455 1456 1454 1454 1455 1455 1455 1455 1454 1456 1454 1455 1453 1452 1454 1457 1458 1460 1463 1466 1468 1472 1476 1479 1481 1483 1484 1483 1485 1487 1488
1462 1460 1458 1457 1457 1457 1456 1454 1453 1454 1454 1454 1454 1454 1455 1456 1456 1454 1455 1455 1456 1455 1452 1454 1451 1453 1454 1456 1458 1460 1462 1465 1467 1470 1474 1477 1479 1480 1481 1483 1484 1486 1488
1459 1458 1456 1456 1455 1454 1454 1454 1453 1453 1454 1454 1454 1454 1455 1454 1454 1454 1454 1455 1454 1454 1454 1453 1452 1453 1455 1457 1459 1461 1463 1465 1467 1470 1472 1474 1476 1478 1478 1480 1481 1481 1482
1456 1455 1453 1452 1454 1452 1452 1453 1454 1453 1452 1453 1453 1453 1453 1453 1454 1454 1454 1454 1454 1453 1453 1452 1453 1454 1455 1457 1459 1460 1462 1465 1466 1467 1469 1471 1472 1473 1474 1475 1476 1477 1478
1454 1452 1451 1450 1450 1450 1449 1450 1451 1450 1450 1450 1451 1452 1451 1452 1452 1453 1453 1453 1453 1452 1452 1454 1454 1456 1457 1458 1459 1461 1463 1464 1465 1466 1467 1469 1470 1470 1471 1472 1474 1474 1476
1450 1448 1447 1446 1446 1446 1446 1446 1446 1446 1446 1447 1448 1448 1450 1450 1450 1449 1450 1451 1450 1451 1453 1454 1455 1456 1457 1459 1460 1462 1463 1463 1464 1465 1466 1467 1468 1469 1471 1472 1473 1473 1473
1446 1444 1442 1440 1439 1440 1440 1440 1440 1440 1440 1441 1442 1444 1445 1446 1446 1446 1447 1448 1448 1449 1450 1453 1454 1455 1457 1459 1461 1463 1464 1462 1462 1464 1465 1465 1466 1467 1469 1470 1470 1471 1472